紫金山彗星

C/2021 S4 ( Tsuchinshan )

English version
Home page
Updated on January 17, 2022

---------------------------------------------------------------------

・ プロフィール

発見日 2021年9月29日
発見光度 20.5等
発見者 Hai-bin Zhao (XuYi station, Purple Mountain Observatory)

・ 軌道要素

Epoch 2022 Jan. 21.0 TT = JDT 2459600.5
T 2024 Jan. 1.08605 TT                                  Rudenko
q   6.6914493            (2000.0)            P               Q
z  +0.0061239      Peri.   72.75605     +0.20778575     -0.97775072
 +/-0.0002189      Node     5.49879     +0.74386898     +0.13883602
e   0.9590219      Incl.   17.48142     +0.63520392     +0.15725164
From 59 observations 2021 Sept. 8-Nov. 28, mean residual 0".5.

・ 光度変化

        m1 = 6.5 + 5 logΔ + 10.0 log r

---------------------------------------------------------------------

軌道要素はM.P.E.C. 2022-A21に掲載されたものです。
光度グラフはComet for Windowsで作成したものです。

---------------------------------------------------------------------

Copyright(C) Seiichi Yoshida (comet@aerith.net). All rights reserved.